Location: Unspecified
(0.0000°N, 0.0000°E)
Time: 10:37:21
(UTC+00:00)

A-11 Canister half - Pass Details

Date: 07 August 2021
Orbit: 1515 x 1685 km, 47.2° (Epoch: 27 September)

Event Time Altitude Azimuth Distance (km) Brightness Sun altitude
Rises 10:10:57 0° 193° (SSW) 4,659 11.3 57.3°
Reaches altitude 10° 10:15:11 10° 176° (S) 3,673 11.0 58.2°
Maximum altitude 10:21:23 20° 133° (SE) 2,989 10.9 59.5°
Drops below altitude 10° 10:27:34 10° 90° (E) 3,700 11.5 60.8°
Sets 10:31:47 0° 74° (ENE) 4,703 11.9 61.7°
